WP4MXZ San Sebastian PR US current weather conditions

sailwx.info

Wind from 128

Air temperature 21.1° C
Dewpoint 21.1° C

Last reported at 2014-Oct-02 09:33 UTC.
Time now 2014-Oct-02 10:26 UTC

Location: N 18°20' W 067°00'.
View on Google Maps.

See reports from other nearby stations

  
Tides and Currents Weather Stations Pressure Air Temp Water Temp Dewpoint Dewpoint Depression Visibility Wind Speed Wind Dir Waves Ship Positions
date/time (UTC)wind fromknots sea level pressurealtimeterstation pressurevisibilityair tempwater tempwave heightnotes
2014-Oct-02 09:33 128 21.1
2014-Oct-02 09:03 128 21.1
2014-Oct-02 08:33 128 21.7
2014-Oct-02 08:04 128 21.7
2014-Oct-02 07:33 128 22.2
2014-Oct-02 07:03 128 22.2
2014-Oct-02 06:33 128 22.8
2014-Oct-02 06:03 128 22.8
2014-Oct-02 04:33 128 23.3
2014-Oct-02 04:03 128 23.9
2014-Oct-02 03:33 128 23.9
2014-Oct-02 03:04 128 24.4
2014-Oct-02 02:34 128 24.4
2014-Oct-02 02:04 128 24.4
2014-Oct-02 01:33 128 24.4
2014-Oct-02 01:03 128 25.0
2014-Oct-02 00:33 128 25.0
2014-Oct-02 00:04 128 25.0
2014-Oct-01 23:34 128 25.6
2014-Oct-01 23:03 128 25.6
2014-Oct-01 22:33 128 25.6
2014-Oct-01 22:04 128 26.1
2014-Oct-01 21:34 128 25.6
2014-Oct-01 21:04 128 25.6
2014-Oct-01 20:33 210 27.2
2014-Oct-01 20:03 163 28.9
2014-Oct-01 19:33 249 29.4
2014-Oct-01 19:04 015 30.6
2014-Oct-01 18:33 30.6
2014-Oct-01 18:04 122 3 31.7
2014-Oct-01 17:34 061 3 32.8
2014-Oct-01 17:04 049 33.3
2014-Oct-01 16:33 148 3 32.8
2014-Oct-01 16:03 296 32.8
2014-Oct-01 15:33 271 32.2
2014-Oct-01 15:03 32.2
2014-Oct-01 14:34 080 31.1
2014-Oct-01 14:04 30.6
2014-Oct-01 13:33 048 28.9
2014-Oct-01 13:04 101 27.8
2014-Oct-01 12:33 271 26.7
2014-Oct-01 12:03 271 24.4
2014-Oct-01 11:33 271 22.8
2014-Oct-01 11:03 271 21.1
2014-Oct-01 10:33 271 20.6
2014-Oct-01 10:04 271 20.6
2014-Oct-01 09:33 271 20.6
2014-Oct-01 09:03 271 21.1
2014-Oct-01 08:33 271 21.1
2014-Oct-01 08:03 271 21.1
2014-Oct-01 07:33 271 21.7
2014-Oct-01 07:03 271 21.7
2014-Oct-01 06:33 271 22.2
2014-Oct-01 06:04 271 22.2
2014-Oct-01 05:33 271 22.2
2014-Oct-01 05:04 271 22.8
2014-Oct-01 04:33 271 22.8
2014-Oct-01 04:03 271 23.3
2014-Oct-01 03:34 271 23.3
2014-Oct-01 03:03 271 23.9
2014-Oct-01 02:34 271 23.9
2014-Oct-01 02:03 271 23.9
2014-Oct-01 01:33 271 24.4
2014-Oct-01 01:04 270 25.0
2014-Oct-01 00:34 013 25.6
2014-Oct-01 00:04 013 25.6
2014-Sep-30 23:34 013 26.1
2014-Sep-30 23:04 013 26.7
2014-Sep-30 22:33 013 27.2
2014-Sep-30 22:04 013 28.3
2014-Sep-30 21:34 038 29.4
2014-Sep-30 21:04 078 2 gusting 5 30.0
2014-Sep-30 20:34 085 0 gusting 4 30.6
2014-Sep-30 20:04 087 3 gusting 6 30.0
2014-Sep-30 19:34 091 2 gusting 6 30.6
2014-Sep-30 19:04 053 0 gusting 6 30.6
2014-Sep-30 18:34 079 0 gusting 7 31.1
2014-Sep-30 18:03 007 2 gusting 6 32.8
2014-Sep-30 17:33 359 33.3
2014-Sep-30 17:04 313 0 gusting 6 32.8
2014-Sep-30 16:34 034 32.8
2014-Sep-30 16:04 108 1 gusting 4 32.2
2014-Sep-30 15:33 102 0 gusting 4 31.7
2014-Sep-30 15:03 081 31.7
2014-Sep-30 14:33 332 0 gusting 2 31.1
2014-Sep-30 14:04 067 30.0
2014-Sep-30 13:34 067 28.9
2014-Sep-30 13:03 198 27.2
2014-Sep-30 12:34 190 24.4
2014-Sep-30 12:03 190 23.3
2014-Sep-30 11:33 190 21.1
2014-Sep-30 11:04 190 18.9
2014-Sep-30 10:33 190 17.8